Weather in Krasnoznamenskiy

Russia / Saratov Oblast     51°20′55″N   43°22′23″E
temp.,
°C
wind,
m/s
gust,
m/s
humid.,
%
clouds,
%
prec.,
mm/h
press.,
hPa
HPBL,
m
13 april, tue
tue1301:00+11ese5155762 0.0 1028279
04:00+9ese4136372 0.0 1029237
07:00+8ese411675 0.0 1029191
10:00+15ese611445 0.0 1029391
13:00+19ese8112990 0.0 10281097
16:00+20ese792933 0.0 10271373
19:00+17ese5104068 0.0 1025235
22:00+13ese41157100 0.0 1026169
14 april, wed
wed1401:00+11ese41362100 0.0 1025228
04:00+9e4126578 0.0 1024199
07:00+8e41265100 0.0 1023200
10:00+14ese61046100 0.0 1022438
13:00+18ese7832100 0.0 10211027
16:00+19ese6829100 0.0 10191510
19:00+16ese474522 0.0 1019144
22:00+12ese475773 0.0 1019106
15 april, thu
thu1501:00+11ese4106621 0.0 1017147
04:00+9e4107399 0.0 1017156
07:00+9ese3778100 0.0 1016119
10:00+14se465699 0.0 1016361
13:00+19sse563396 0.0 10151045
16:00+20s4631100 0.0 10141785
19:00+18s2246100 0.0 101421
22:00+14sw115795 0.0 101511
16 april, fri
fri1601:00+13s1161100 0.0 101510
04:00+12sse1267100 0.0 101510
07:00+11s116981 0.0 101510
10:00+15ese115994 0.4 1016208
13:00+18se2344100 0.0 10161209
16:00+20se353394 0.0 10162146
19:00+18se234539 0.0 101658
22:00+12n238149 0.3 101860
17 april, sat
sat1701:00+12nne34775 0.1 101753
04:00+11e346990 0.1 101744
07:00+10e496891 0.0 1018175
10:00+14se5753100 0.0 1018668
13:00+18se6843100 0.0 10191705
16:00+16sse5856100 1.0 1019402
19:00+10sw81185100 2.4 1022607
22:00+9nne2291100 6.4 1020258